{"data":{"norad_id":58354,"epoch":"2026-05-24T17:58:20.250336Z","epoch_age_seconds":86897,"freshness":"FRESH","line1":"1 58354U 23177D   26144.74884549  .00002544  00000+0  10194-3 0  9993","line2":"2 58354  43.0029 281.5717 0001521 270.2475  89.8202 15.27575530139802","mean_motion":15.2757553,"eccentricity":0.0001521,"inclination_deg":43.0029,"raan_deg":281.5717,"arg_perigee_deg":270.2475,"mean_anomaly_deg":89.8202,"bstar":0.00010194,"rev_number":13980,"period_min":94.267024557535,"perigee_km":482.01889241933,"apogee_km":484.10606930141,"semimajor_km":6861.1994808604,"source":"CELESTRAK","updated_at":"2026-05-25T13:38:18.584727Z"}}